When you browse on this site, cookies collect data to enhance your experience and personalize the content and advertising you see.
Visit our Privacy Policy to learn more. By continuing to use the site, you agree to this use of cookies and data.
  • In Österreich
  • Länderverzeichnis
  • Für 7 Tage
  • Wassertemperatur
  • Wetterkarte
  • News
  • Widgets
  • user-avatar
    Anmelden

    Stündliche Wetter Bregenz

    Heute, 9 Dezember, Montag

    Zeit Temperatur Niederschläge Wind Luftdruck Luftfeuchtigkeit
    00:00 -1°C° 0.3 mm 2 m/S 640 mmHg 74%
    01:00 -1°C° 0 mm 2 m/S 640 mmHg 74%
    02:00 -1°C° 0.2 mm 3 m/S 639 mmHg 78%
    03:00 -1°C° 0.2 mm 3 m/S 639 mmHg 83%
    04:00 -1°C° 0.2 mm 3 m/S 639 mmHg 87%
    05:00 -1°C° 0.5 mm 3 m/S 639 mmHg 89%
    06:00 -2°C° 0.5 mm 3 m/S 639 mmHg 90%
    07:00 -2°C° 0.5 mm 3 m/S 639 mmHg 91%
    08:00 -2°C° 0.1 mm 3 m/S 638 mmHg 89%
    09:00 -1°C° 0.1 mm 2 m/S 638 mmHg 87%
    10:00 -1°C° 0.1 mm 2 m/S 638 mmHg 85%
    11:00 +1°C° 0 mm 2 m/S 638 mmHg 80%
    12:00 +1°C° 0 mm 3 m/S 638 mmHg 75%
    13:00 +2°C° 0 mm 3 m/S 637 mmHg 71%
    14:00 +1°C° 0.6 mm 3 m/S 637 mmHg 79%
    15:00 -1°C° 0.6 mm 3 m/S 637 mmHg 86%
    16:00 -2°C° 0.6 mm 3 m/S 637 mmHg 94%
    17:00 -2°C° 1.4 mm 3 m/S 637 mmHg 95%
    18:00 -3°C° 1.4 mm 4 m/S 638 mmHg 96%
    19:00 -4°C° 1.4 mm 4 m/S 639 mmHg 97%
    20:00 -4°C° 1.6 mm 4 m/S 639 mmHg 97%
    21:00 -4°C° 1.6 mm 3 m/S 640 mmHg 97%
    22:00 -4°C° 1.6 mm 3 m/S 640 mmHg 97%
    23:00 -4°C° 1.6 mm 3 m/S 641 mmHg 97%

    Morgen, 10 Dezember, Dienstag

    Zeit Temperatur Niederschläge Wind Luftdruck Luftfeuchtigkeit
    00:00 -5°C° 1.6 mm 3 m/S 642 mmHg 98%
    01:00 -5°C° 1.6 mm 3 m/S 643 mmHg 98%
    02:00 -5°C° 1.6 mm 3 m/S 643 mmHg 97%
    03:00 -5°C° 1.6 mm 3 m/S 644 mmHg 97%
    04:00 -5°C° 1.6 mm 3 m/S 645 mmHg 97%
    05:00 -6°C° 1.2 mm 3 m/S 646 mmHg 96%
    06:00 -6°C° 1.2 mm 3 m/S 647 mmHg 96%
    07:00 -5°C° 1.2 mm 2 m/S 647 mmHg 95%
    08:00 -5°C° 0.4 mm 2 m/S 648 mmHg 94%
    09:00 -3°C° 0.4 mm 1 m/S 648 mmHg 93%
    10:00 -4°C° 0.4 mm 1 m/S 649 mmHg 92%
    11:00 -3°C° 0 mm 1 m/S 649 mmHg 88%
    12:00 -4°C° 0 mm 0 m/S 649 mmHg 85%
    13:00 -3°C° 0 mm 0 m/S 649 mmHg 81%
    14:00 -4°C° 0 mm 0 m/S 648 mmHg 83%
    15:00 -4°C° 0 mm 1 m/S 647 mmHg 84%
    16:00 -6°C° 0 mm 1 m/S 646 mmHg 86%
    17:00 -7°C° 0 mm 1 m/S 646 mmHg 83%
    18:00 -8°C° 0 mm 1 m/S 646 mmHg 80%
    19:00 -10°C° 0 mm 2 m/S 646 mmHg 77%
    20:00 -10°C° 0 mm 2 m/S 645 mmHg 73%
    21:00 -10°C° 0 mm 2 m/S 645 mmHg 69%
    22:00 -10°C° 0 mm 2 m/S 645 mmHg 65%
    23:00 -10°C° 0 mm 2 m/S 644 mmHg 63%

    übermorgen, 11 Dezember, Mittwoch

    Zeit Temperatur Niederschläge Wind Luftdruck Luftfeuchtigkeit
    00:00 -9°C° 0 mm 2 m/S 644 mmHg 61%
    01:00 -9°C° 0 mm 2 m/S 644 mmHg 59%
    02:00 -9°C° 0 mm 2 m/S 643 mmHg 58%
    03:00 -8°C° 0 mm 2 m/S 642 mmHg 57%
    04:00 -8°C° 0 mm 2 m/S 642 mmHg 56%
    05:00 -8°C° 0 mm 2 m/S 642 mmHg 56%
    06:00 -6°C° 0 mm 1 m/S 641 mmHg 55%
    07:00 -6°C° 0 mm 1 m/S 641 mmHg 55%
    08:00 -4°C° 0 mm 1 m/S 641 mmHg 56%
    09:00 -3°C° 0 mm 1 m/S 641 mmHg 57%
    10:00 -1°C° 0 mm 1 m/S 641 mmHg 59%
    11:00 0°C° 0 mm 1 m/S 641 mmHg 63%
    12:00 0°C° 0 mm 1 m/S 640 mmHg 68%
    13:00 +1°C° 0 mm 1 m/S 640 mmHg 72%
    14:00 +1°C° 0 mm 1 m/S 640 mmHg 69%
    15:00 +1°C° 0 mm 1 m/S 639 mmHg 67%
    16:00 0°C° 0 mm 1 m/S 639 mmHg 64%
    17:00 0°C° 0.1 mm 1 m/S 639 mmHg 72%
    18:00 -1°C° 0.1 mm 1 m/S 639 mmHg 79%
    19:00 -4°C° 0.1 mm 2 m/S 639 mmHg 87%
    20:00 -4°C° 0.6 mm 2 m/S 639 mmHg 90%
    21:00 -4°C° 0.6 mm 2 m/S 639 mmHg 94%
    22:00 -2°C° 0.6 mm 1 m/S 639 mmHg 97%
    23:00 -2°C° 0.3 mm 1 m/S 639 mmHg 96%

    12 Dezember, Donnerstag

    Zeit Temperatur Niederschläge Wind Luftdruck Luftfeuchtigkeit
    00:00 -3°C° 0.3 mm 1 m/S 638 mmHg 94%
    01:00 -3°C° 0.3 mm 1 m/S 638 mmHg 93%
    02:00 -5°C° 0.4 mm 2 m/S 638 mmHg 93%
    03:00 -6°C° 0.4 mm 2 m/S 637 mmHg 94%
    04:00 -7°C° 0.4 mm 3 m/S 637 mmHg 95%
    05:00 -7°C° 0.4 mm 3 m/S 638 mmHg 94%
    06:00 -7°C° 0.4 mm 3 m/S 638 mmHg 93%
    07:00 -8°C° 0.4 mm 3 m/S 638 mmHg 92%
    08:00 -7°C° 0.2 mm 3 m/S 639 mmHg 92%
    09:00 -7°C° 0.2 mm 3 m/S 639 mmHg 92%
    10:00 -7°C° 0.2 mm 3 m/S 639 mmHg 92%
    11:00 -6°C° 0.2 mm 3 m/S 639 mmHg 90%
    12:00 -5°C° 0.2 mm 2 m/S 639 mmHg 88%
    13:00 -5°C° 0.2 mm 2 m/S 639 mmHg 86%
    14:00 -5°C° 0.1 mm 2 m/S 639 mmHg 86%
    15:00 -6°C° 0.1 mm 2 m/S 638 mmHg 86%
    16:00 -6°C° 0.1 mm 2 m/S 638 mmHg 86%
    17:00 -7°C° 0 mm 2 m/S 637 mmHg 84%
    18:00 -9°C° 0 mm 3 m/S 636 mmHg 82%
    19:00 -10°C° 0 mm 3 m/S 636 mmHg 80%
    20:00 -11°C° 0 mm 4 m/S 635 mmHg 76%
    21:00 -11°C° 0 mm 4 m/S 634 mmHg 72%
    22:00 -10°C° 0 mm 4 m/S 633 mmHg 69%
    23:00 -10°C° 0.2 mm 4 m/S 632 mmHg 70%

    13 Dezember, Freitag

    Zeit Temperatur Niederschläge Wind Luftdruck Luftfeuchtigkeit
    00:00 -9°C° 0.2 mm 4 m/S 631 mmHg 71%
    01:00 -8°C° 0.2 mm 5 m/S 630 mmHg 73%
    02:00 -8°C° 0.2 mm 5 m/S 629 mmHg 73%
    03:00 -8°C° 0.2 mm 5 m/S 629 mmHg 73%
    04:00 -8°C° 0.2 mm 5 m/S 628 mmHg 74%
    05:00 -8°C° 0.6 mm 5 m/S 627 mmHg 78%
    06:00 -8°C° 0.6 mm 5 m/S 626 mmHg 82%
    07:00 -8°C° 0.6 mm 5 m/S 626 mmHg 86%
    08:00 -8°C° 1.1 mm 5 m/S 625 mmHg 88%
    09:00 -8°C° 1.1 mm 4 m/S 625 mmHg 89%
    10:00 -7°C° 1.1 mm 4 m/S 625 mmHg 90%
    11:00 -6°C° 3.2 mm 3 m/S 626 mmHg 92%
    12:00 -5°C° 3.2 mm 3 m/S 626 mmHg 94%
    13:00 -5°C° 3.2 mm 3 m/S 627 mmHg 95%
    14:00 -5°C° 0.4 mm 3 m/S 627 mmHg 94%
    15:00 -5°C° 0.4 mm 3 m/S 627 mmHg 92%
    16:00 -5°C° 0.4 mm 3 m/S 627 mmHg 91%
    17:00 -6°C° 0.2 mm 3 m/S 628 mmHg 92%
    18:00 -6°C° 0.2 mm 3 m/S 628 mmHg 92%
    19:00 -6°C° 0.2 mm 3 m/S 628 mmHg 93%
    20:00 -6°C° 0.6 mm 3 m/S 629 mmHg 94%
    21:00 -6°C° 0.6 mm 3 m/S 629 mmHg 95%
    22:00 -6°C° 0.6 mm 3 m/S 630 mmHg 96%
    23:00 -6°C° 0.4 mm 3 m/S 630 mmHg 95%

    14 Dezember, Samstag

    Zeit Temperatur Niederschläge Wind Luftdruck Luftfeuchtigkeit
    00:00 -6°C° 0.4 mm 3 m/S 631 mmHg 94%
    01:00 -6°C° 0.4 mm 3 m/S 631 mmHg 93%
    02:00 -7°C° 0 mm 3 m/S 631 mmHg 90%
    03:00 -8°C° 0 mm 3 m/S 630 mmHg 87%
    04:00 -8°C° 0 mm 3 m/S 630 mmHg 85%
    05:00 -8°C° 0.2 mm 3 m/S 630 mmHg 87%
    06:00 -7°C° 0.2 mm 3 m/S 631 mmHg 88%
    07:00 -7°C° 0.2 mm 3 m/S 631 mmHg 90%
    08:00 -6°C° 1.7 mm 3 m/S 631 mmHg 92%
    09:00 -6°C° 1.7 mm 3 m/S 631 mmHg 94%
    10:00 -5°C° 1.7 mm 3 m/S 631 mmHg 96%
    11:00 -4°C° 1.4 mm 3 m/S 632 mmHg 97%
    12:00 -4°C° 1.4 mm 3 m/S 632 mmHg 97%
    13:00 -2°C° 1.4 mm 3 m/S 633 mmHg 98%
    14:00 -2°C° 0.9 mm 3 m/S 634 mmHg 98%
    15:00 -1°C° 0.9 mm 3 m/S 634 mmHg 97%
    16:00 -2°C° 0.9 mm 4 m/S 635 mmHg 97%
    17:00 -2°C° 0.3 mm 4 m/S 636 mmHg 95%
    18:00 -2°C° 0.3 mm 4 m/S 636 mmHg 94%
    19:00 -2°C° 0.3 mm 3 m/S 637 mmHg 93%
    20:00 -2°C° 0 mm 3 m/S 638 mmHg 92%
    21:00 -2°C° 0 mm 3 m/S 638 mmHg 91%
    22:00 -2°C° 0 mm 3 m/S 639 mmHg 91%
    23:00 -2°C° 0.1 mm 3 m/S 639 mmHg 91%
    Mehr zeigen